Location: Kruen
(47.5000°N, 11.5000°E)
Time: 12:18:04
(UTC+01:00)

X-37B - Visible Passes

Search period start: 28 October 2020 00:00
Search period end: 07 November 2020 00:00
Orbit: 382 x 392 km, 45.0° (Epoch: 15 October)

Date Brightness Start Highest point End Pass type
(mag) Time Alt. Az. Time Alt. Az. Time Alt. Az.
02 Nov 3.0 06:02:02 10° SSW 06:04:29 20° SSE 06:06:56 10° ESE visible
03 Nov 3.4 05:04:30 10° S 05:06:08 13° SSE 05:07:46 10° ESE visible
04 Nov 2.3 05:41:18 12° SW 05:43:46 29° SSE 05:46:36 10° E visible
05 Nov 2.9 04:45:41 20° SE 04:45:41 20° SE 04:47:49 10° ESE visible
05 Nov 1.4 06:18:31 10° WSW 06:21:36 48° S 06:24:43 10° E visible
06 Nov 1.6 05:22:16 31° SSW 05:23:07 39° SSE 05:26:08 10° E visible
